Flag for U.S.A. Weather past 2 weeks in Virginia Beach, Virginia, U.S.A.

Now
75 °F

Passing clouds.


Feels Like: 76 °F
Forecast: 71 / 82 °F
Wind: 10 mph from North

Location: Virginia Beach - Oceana

Current Time: Jul 25, 2014 at 10:06:57 AM

Latest Report: Jul 25, 2014 at 8:56 AM


Visibility: 10 mi

Pressure: 30.03 "Hg

Humidity: 74%

Dew point: 66 °F

Location of Virginia BeachLocation

Historic Weather in Virginia Beach — Graph

°F

Virginia Beach temperature yesterday

Maximum temperature yesterday: 81 °F (at 8:56 AM)
Minimum temperature yesterday: 73 °F (at 9:56 PM)
Average temperature yesterday: 77 °F

Past Weeks' High & Low Weather Summary

 TemperatureHumidityPressure
High92 °F (Jul 14, 3:56 PM)100% (Jul 12, 3:56 AM)30.24 "Hg (Jul 12, 3:56 AM)
Low63 °F (Jul 18, 5:56 AM)44% (Jul 17, 11:56 AM)29.74 "Hg (Jul 15, 3:56 PM)
Average77 °F80%30.04 "Hg
* Reported Jul 10 7:56 AM — Jul 25 7:56 AM, Virginia Beach, Weather by CustomWeather, © 2014

Note: Actual official high and low records may vary slightly from our data, if they occured in-between our weather recording intervals... More about our weather records

Advertising

Virginia Beach weather history for previous 24 hours

 ConditionsComfort  
Time TempWeatherWind HumidityBarometerVisibility
7:56 AM
Jul 25
74 °FScattered clouds.8 mph79%30.01 "Hg10 mi
6:56 AM70 °FPassing clouds.5 mph97%29.99 "Hg9 mi
5:56 AM70 °FOvercast.5 mph97%29.96 "Hg10 mi
4:56 AM71 °FOvercast.3 mph93%29.96 "Hg10 mi
3:56 AM70 °FLight rain. Overcast.5 mph93%29.95 "Hg10 mi
2:56 AM72 °FLight rain. Overcast.8 mph93%29.94 "Hg7 mi
1:56 AM71 °FPartly cloudy.6 mph96%29.92 "Hg8 mi
12:56 AM72 °FFog.5 mph97%29.90 "Hg6 mi
11:56 PM
Jul 24
73 °FOvercast.8 mph94%29.87 "Hg8 mi
10:56 PM73 °FRain. Fog.12 mph94%29.89 "Hg5 mi
9:56 PM73 °FThunderstorms. Fog.6 mph94%29.93 "Hg4 mi
8:58 PM74 °FThunderstorms. Fog.10 mph94%29.90 "Hg4 mi
7:56 PM75 °FThunderstorms. Fog.9 mph90%29.88 "Hg5 mi
6:56 PM77 °FCloudy.9 mph85%29.85 "Hg10 mi
5:56 PM77 °FBroken clouds.7 mph85%29.85 "Hg10 mi
4:56 PM79 °FPartly sunny.9 mph79%29.85 "Hg10 mi
3:56 PM78 °FBroken clouds.8 mph79%29.87 "Hg10 mi
2:56 PM79 °FPartly sunny.6 mph82%29.87 "Hg10 mi
1:56 PM76 °FScattered clouds.No wind91%29.88 "Hg7 mi
12:56 PM76 °FLight rain. Mostly cloudy.No wind88%29.87 "Hg7 mi
11:56 AM74 °FLight rain. Fog.3 mph94%29.88 "Hg3 mi
11:01 AM75 °FThunderstorms. Fog.12 mph94%29.87 "Hg4 mi
Weather by CustomWeather, © 2014

See weather overviewHow to use our weather pages